NOAA 16 DEB

Satellite information

Favourite Embed

Satellite Type and Status

DEBRISIN ORBIT

Key statistics

Satellite NOAA 16 DEB at a glance.

Uptime

9156

Days in orbit

Revolutions

≈ 14.4

Per day

Orbit

SSO

Sun Synchronous Orbit

Inclination

98.7

Latest

Satellite identification and parameters

Extended collection of information and parameters for NOAA 16 DEB.

Object identification

Identified? True

Debris? True

Object name: NOAA 16 DEB

International designator: 2000-055SR

Object number (NORAD): 42397

Object ID (CCSDS): 42397

Country: UNITED STATES OF AMERICA (US)

Current information (Y/N): Y

RCS size: SMALL

Orbital parameters

Period: 99.923 minutes

Inclination: 98.7366 deg

SMA: 7132.967 km

Apoapsis: 777.133 km

Periapsis: 732.532 km

RAAN: 6.0732 deg

Eccentricy: 0.00312646

Argument of periapsis: 324.5381 deg

Mean anomaly: 35.3729 deg

Mean motion: 14.41110874 rev/day

Mean motion (dot): 0.00010894 rev/day2

B* drag term: 0.0033712591 1/REarth

Two-line elements (TLE)

Creation date: Oct. 7, 2025, 5:38 p.m.

Reference frame: TEME

Reference center: EARTH

Epoch: Oct. 7, 2025, 11:29 a.m. UTC

TLE line 0: 0 NOAA 16 DEB

TLE line 1: 1 42397U 00055SR 25280.47898936 .00010894 00000-0 33713-2 0 9997

TLE line 2: 2 42397 98.7366 6.0732 0031265 324.5381 35.3729 14.41110874497265

Live tracking on map

Real-time ground track for satellite NOAA 16 DEB.

In-orbit conjunctions

A list of the most updated potential collisions computed for object NOAA 16 DEB.

Target Orbit TCA Probability of collision Miss distance Type
COSMOS 2251 DEB LEO 2025-05-27 03:02:28 0.0001214206 87.0 (m) DEBRIS
COSMOS 1275 DEB LEO 2025-04-08 11:11:43 0.0001921993 101.0 (m) DEBRIS
CZ-6A DEB LEO 2025-02-21 03:38:20 0.0002051654 233.0 (m) DEBRIS
CZ-6A DEB LEO 2025-02-17 02:32:23 0.001335405 79.0 (m) DEBRIS
PICOSAT 1&2 (TETHERED) SSO 2025-02-15 13:47:07 0.0002719411 198.0 (m) PAYLOAD

Associated space launch

The NOAA K, L and M POES satellites begin the fifth generation of improved environmental monitoring in support of NOAA missions. The instrument payload has significant improvements and additions/deletions. The instrument changes have effected the spacecraft subsystems and data formats.

NOAA 16 DEB was lifted into orbit during the mission ‘Titan II SLV | NOAA 16’, on board a Titan II SLV space rocket.

The launch took place on Sept. 21, 2000, 10:22 a.m. from Space Launch Complex 4W.

For more information about the launch, click the button.

Launch to space Titan II SLV | NOAA 16
Titan II SLV | NOAA 16

Agency: N/A

Status: Launch Successful

Launch date: Sept. 21, 2000, 10:22 a.m. UTC

Rocket: Titan II SLV

Launch pad: Space Launch Complex 4W

Location: Vandenberg SFB, CA, USA

...

Latest news about this satellite

There are no fresh news available about this satellite. Check back as we update our databases every day.


Newsletter sign-up

Weekly statistics, charts and insights to help you stay on top of the space industry.